Time,TemperatureF,DewpointF,PressureIn,WindDirection,WindDirectionDegrees,WindSpeedMPH,WindSpeedGustMPH,Humidity,HourlyPrecipIn,Conditions,Clouds,dailyrainin,SoftwareType,DateUTC
2013-05-13 00:02:00,64.0,-99.9,-100.00,North,350,3.0,6.0,-999,-99.99,,,-99.99,,2013-05-13 07:02:00,
2013-05-13 00:12:00,64.0,-99.9,-100.00,North,350,3.0,6.0,-999,-99.99,,,-99.99,,2013-05-13 07:12:00,
2013-05-13 01:02:00,62.0,-99.9,-100.00,NNE,19,3.0,5.0,-999,-99.99,,,-99.99,,2013-05-13 08:02:00,
2013-05-13 01:11:00,62.0,-99.9,-100.00,NNE,19,3.0,5.0,-999,-99.99,,,-99.99,,2013-05-13 08:11:00,
2013-05-13 02:01:00,60.0,-99.9,-100.00,ENE,77,3.0,5.0,-999,-99.99,,,-99.99,,2013-05-13 09:01:00,
2013-05-13 02:11:00,60.0,-99.9,-100.00,ENE,77,3.0,5.0,-999,-99.99,,,-99.99,,2013-05-13 09:11:00,
2013-05-13 03:03:00,60.0,-99.9,-100.00,ENE,59,5.0,6.0,-999,-99.99,,,-99.99,,2013-05-13 10:03:00,
2013-05-13 03:12:00,60.0,-99.9,-100.00,ENE,59,5.0,6.0,-999,-99.99,,,-99.99,,2013-05-13 10:12:00,
2013-05-13 04:03:00,61.0,-99.9,-100.00,SE,146,6.0,8.0,-999,-99.99,,,-99.99,,2013-05-13 11:03:00,
2013-05-13 04:12:00,61.0,-99.9,-100.00,SE,146,6.0,8.0,-999,-99.99,,,-99.99,,2013-05-13 11:12:00,
2013-05-13 05:02:00,62.0,-99.9,-100.00,SSE,149,1.0,2.0,-999,-99.99,,,-99.99,,2013-05-13 12:02:00,
2013-05-13 05:12:00,62.0,-99.9,-100.00,SSE,149,1.0,2.0,-999,-99.99,,,-99.99,,2013-05-13 12:12:00,
2013-05-13 06:01:00,61.0,-99.9,-100.00,North,359,3.0,6.0,-999,-99.99,,,-99.99,,2013-05-13 13:01:00,
2013-05-13 06:11:00,61.0,-99.9,-100.00,North,359,3.0,6.0,-999,-99.99,,,-99.99,,2013-05-13 13:11:00,
2013-05-13 06:52:00,61.0,-99.9,-100.00,ESE,102,3.0,5.0,-999,-99.99,,,-99.99,,2013-05-13 13:52:00,
2013-05-13 07:02:00,61.0,-99.9,-100.00,ESE,102,3.0,5.0,-999,-99.99,,,-99.99,,2013-05-13 14:02:00,
2013-05-13 07:11:00,61.0,-99.9,-100.00,ESE,102,3.0,5.0,-999,-99.99,,,-99.99,,2013-05-13 14:11:00,
2013-05-13 09:03:00,65.0,-99.9,-100.00,SSW,204,3.0,5.0,-999,-99.99,,,-99.99,,2013-05-13 16:03:00,
2013-05-13 09:12:00,65.0,-99.9,-100.00,SSW,204,3.0,5.0,-999,-99.99,,,-99.99,,2013-05-13 16:12:00,
2013-05-13 10:02:00,67.0,-99.9,-100.00,SE,131,5.0,9.0,-999,-99.99,,,-99.99,,2013-05-13 17:02:00,
2013-05-13 10:12:00,67.0,-99.9,-100.00,SE,131,5.0,9.0,-999,-99.99,,,-99.99,,2013-05-13 17:12:00,
2013-05-13 11:04:00,68.0,-99.9,-100.00,SE,133,8.0,12.0,-999,-99.99,,,-99.99,,2013-05-13 18:04:00,
2013-05-13 11:13:00,68.0,-99.9,-100.00,SE,133,8.0,12.0,-999,-99.99,,,-99.99,,2013-05-13 18:13:00,
2013-05-13 12:01:00,70.0,-99.9,-100.00,East,86,5.0,8.0,-999,-99.99,,,-99.99,,2013-05-13 19:01:00,
2013-05-13 12:12:00,70.0,-99.9,-100.00,East,86,5.0,8.0,-999,-99.99,,,-99.99,,2013-05-13 19:12:00,
2013-05-13 13:02:00,71.0,-99.9,-100.00,West,273,9.0,14.0,-999,-99.99,,,-99.99,,2013-05-13 20:02:00,
2013-05-13 13:11:00,71.0,-99.9,-100.00,West,273,9.0,14.0,-999,-99.99,,,-99.99,,2013-05-13 20:11:00,
2013-05-13 14:03:00,63.0,-99.9,-100.00,WSW,258,25.0,35.0,-999,-99.99,,,-99.99,,2013-05-13 21:03:00,
2013-05-13 14:14:00,63.0,-99.9,-100.00,WSW,258,25.0,35.0,-999,-99.99,,,-99.99,,2013-05-13 21:14:00,
2013-05-13 15:03:00,62.0,-99.9,-100.00,SSW,207,9.0,13.0,-999,-99.99,,,-99.99,,2013-05-13 22:03:00,
2013-05-13 15:12:00,62.0,-99.9,-100.00,SSW,207,9.0,13.0,-999,-99.99,,,-99.99,,2013-05-13 22:12:00,
2013-05-13 17:03:00,74.0,-99.9,-100.00,WSW,248,21.0,33.0,-999,-99.99,,,-99.99,,2013-05-14 00:03:00,
2013-05-13 17:13:00,74.0,-99.9,-100.00,WSW,248,21.0,33.0,-999,-99.99,,,-99.99,,2013-05-14 00:13:00,
2013-05-13 18:02:00,74.0,-99.9,-100.00,WSW,237,33.0,53.0,-999,-99.99,,,-99.99,,2013-05-14 01:02:00,
2013-05-13 18:11:00,74.0,-99.9,-100.00,WSW,237,33.0,53.0,-999,-99.99,,,-99.99,,2013-05-14 01:11:00,
2013-05-13 19:03:00,72.0,-99.9,-100.00,WSW,244,32.0,47.0,-999,-99.99,,,-99.99,,2013-05-14 02:03:00,
2013-05-13 19:12:00,72.0,-99.9,-100.00,WSW,244,32.0,47.0,-999,-99.99,,,-99.99,,2013-05-14 02:12:00,
2013-05-13 20:01:00,69.0,-99.9,-100.00,WSW,248,31.0,48.0,-999,-99.99,,,-99.99,,2013-05-14 03:01:00,
2013-05-13 20:11:00,69.0,-99.9,-100.00,WSW,248,31.0,48.0,-999,-99.99,,,-99.99,,2013-05-14 03:11:00,
2013-05-13 22:02:00,60.0,-99.9,-100.00,WNW,300,16.0,23.0,-999,-99.99,,,-99.99,,2013-05-14 05:02:00,
2013-05-13 22:12:00,60.0,-99.9,-100.00,WNW,300,16.0,23.0,-999,-99.99,,,-99.99,,2013-05-14 05:12:00,
2013-05-13 23:02:00,55.0,-99.9,-100.00,WNW,293,10.0,15.0,-999,-99.99,,,-99.99,,2013-05-14 06:02:00,
2013-05-13 23:13:00,55.0,-99.9,-100.00,WNW,293,10.0,15.0,-999,-99.99,,,-99.99,,2013-05-14 06:13:00,